Wind_Speed
5 5 5 5 5 4 4 4 4 4 4 3 3 4 4 4 4 4 4 4 5 5 5 6 6 7 6 6 5 5 5 5 5 5 5 4 4 4 5 5 5 5 5
5 4 4 4 4 4 4 4 4 4 4 4 4 4 5 5 6 5 5 5 6 6 6 6 7 7 8 8 7 7 7 7 6 6 6 6 6 6 6 6 6 6 5
4 4 3 3 3 4 4 5 5 4 4 4 5 6 6 7 7 7 7 7 7 8 8 8 8 9 9 9 9 9 9 9 9 8 8 7 7 7 7 7 6 6 6
3 2 2 2 3 4 4 5 5 6 5 5 5 6 7 7 7 8 8 8 9 9 9 10 10 10 10 10 10 10 10 10 10 10 9 9 8 8 8 8 7 7 7
2 1 1 1 2 3 4 4 5 5 6 6 7 7 7 7 7 8 9 10 10 10 10 11 11 11 11 11 12 12 11 11 11 11 10 10 10 10 9 9 8 8 8
1 0 1 2 2 3 4 5 5 6 6 7 7 7 7 8 8 8 8 9 10 10 10 10 10 10 10 11 12 12 12 12 13 13 12 12 11 11 10 10 10 10 10
1 1 1 2 3 4 5 6 6 7 7 8 8 8 9 9 9 9 10 10 10 11 11 11 11 11 11 11 12 13 13 13 13 13 13 13 13 12 12 11 11 11 11
3 2 2 3 4 4 5 6 7 8 9 9 10 10 10 10 10 11 11 12 12 12 12 12 13 12 12 12 12 13 14 14 14 14 14 14 14 14 13 13 13 13 13
3 4 4 5 5 5 5 6 7 8 9 9 10 11 11 11 11 11 11 12 12 12 12 13 14 14 14 14 14 14 14 15 15 15 15 15 14 15 15 15 15 15 15
4 4 5 5 6 6 7 7 8 8 9 10 10 11 11 11 11 11 11 12 13 13 13 13 13 14 15 15 15 15 15 15 16 16 16 16 16 16 16 16 16 16 16
6 6 6 6 6 7 7 8 8 8 9 10 11 11 12 12 12 12 13 13 13 13 13 14 14 15 15 16 17 16 16 16 16 17 17 18 18 18 18 18 18 18 18
7 7 7 8 8 8 8 8 9 10 10 11 12 12 13 13 13 13 13 14 14 14 14 15 15 16 16 16 17 17 16 16 17 18 18 19 19 19 19 19 20 20 20
8 8 9 9 9 10 10 10 10 11 12 12 12 13 14 14 13 14 14 15 15 15 15 15 15 16 16 17 17 17 17 18 18 18 19 20 20 20 21 21 21 22 22
10 11 11 11 11 11 11 12 12 12 13 14 14 15 15 15 15 15 15 16 16 16 16 16 16 17 17 18 18 18 18 18 18 18 19 20 21 22 22 22 23 23 22
13 13 13 13 12 13 13 13 14 14 15 15 16 16 15 15 15 15 16 17 17 17 18 18 19 18 18 19 19 19 19 19 19 19 20 21 22 22 23 23 24 24 23
15 15 15 15 15 14 15 15 16 15 16 17 17 17 16 17 17 18 18 19 19 20 20 21 21 20 20 20 21 21 21 21 21 21 21 23 24 24 24 24 25 25 25
16 16 17 16 17 17 17 18 18 18 18 18 19 19 18 18 19 19 19 20 21 21 22 22 23 23 23 23 23 24 24 23 24 23 24 24 25 26 26 26 26 26 26
18 18 18 18 19 19 19 19 19 20 20 21 21 20 20 20 21 21 21 22 22 23 23 24 24 25 25 25 25 25 25 25 26 25 26 26 27 27 27 27 27 27 28
21 21 21 22 22 22 22 22 22 22 22 22 22 22 21 21 21 22 22 23 23 24 24 24 25 26 26 26 26 26 27 27 27 27 28 28 28 28 29 29 29 29 29
23 23 24 24 24 24 24 24 23 23 23 23 22 22 22 23 23 23 24 24 24 25 25 25 25 26 26 27 27 28 29 29 29 29 29 29 29 29 29 29 30 30 30
25 25 25 25 26 26 25 26 25 25 25 25 24 24 24 25 25 26 26 26 27 27 27 26 26 27 28 28 28 29 30 30 31 31 30 30 30 30 30 30 31 31 31
25 26 26 26 26 27 27 27 28 27 26 26 26 26 27 27 28 28 29 29 30 29 29 28 28 28 29 30 30 30 30 30 30 31 31 31 31 30 31 31 31 31 32
27 27 28 28 28 28 28 29 29 28 27 27 28 28 29 30 31 31 31 32 31 31 31 30 30 30 30 30 30 30 30 30 29 29 30 30 31 31 31 32 31 31 31
29 29 29 29 29 29 30 30 31 31 30 29 30 30 31 32 32 33 33 33 33 33 32 31 31 31 31 31 31 30 30 31 30 30 30 29 30 31 31 31 32 32 32
31 31 31 31 31 31 31 31 32 32 32 32 32 32 33 33 33 34 35 34 33 32 32 32 32 32 33 33 32 32 32 31 31 30 30 30 30 31 32 32 32 32 32
33 33 33 33 32 32 33 33 33 33 33 33 33 34 34 34 35 35 35 34 33 33 32 32 32 33 33 33 33 33 33 33 32 31 30 30 30 31 31 31 32 32 32
Wind_Direction
139 153 163 167 176 193 208 212 213 213 221 230 237 238 245 251 246 245 245 240 240 246 252 254 255 255 257 260 257 264 268 272 277 282 288 291 297 305 314 310 305 304 304
136 142 160 170 182 199 212 214 220 222 233 241 245 251 254 254 253 253 249 250 250 255 258 260 262 263 261 262 264 266 268 271 272 275 282 286 288 291 298 301 301 301 299
140 145 159 178 202 215 216 216 228 237 246 249 250 251 258 257 252 256 260 260 259 261 262 264 267 265 263 264 264 263 267 267 268 271 276 279 281 285 289 295 298 296 292
132 142 158 189 213 225 225 232 240 243 251 259 264 259 261 261 258 257 259 262 262 264 263 264 266 265 264 265 266 266 268 268 266 266 272 275 276 280 285 288 288 291 288
121 150 199 236 234 228 231 242 254 256 257 258 264 266 262 261 266 261 261 263 266 267 265 262 264 265 266 265 265 267 267 265 265 265 269 272 274 276 281 281 282 283 285
77 190 248 259 256 244 240 248 256 261 264 267 271 268 262 264 267 267 269 266 266 266 263 262 263 266 269 269 265 265 267 266 266 267 268 271 273 274 275 277 278 281 284
10 336 288 276 268 259 251 254 256 261 264 269 276 276 272 272 272 273 273 271 269 270 266 264 265 267 271 272 268 265 265 266 267 268 269 271 274 276 273 273 276 279 281
346 338 313 299 285 275 268 260 257 262 264 265 267 272 277 278 276 275 275 273 271 269 270 267 263 266 269 270 273 268 264 262 264 267 269 271 272 273 272 272 273 275 276
324 323 316 302 297 285 277 274 272 269 267 266 267 272 275 275 274 274 274 273 271 269 267 268 266 265 267 270 273 269 267 264 263 266 269 270 269 270 271 270 272 275 272
332 323 319 311 302 295 287 281 280 276 273 274 274 273 276 274 273 272 274 274 272 271 270 270 272 270 267 269 272 271 271 271 268 269 269 269 268 269 269 270 271 273 274
330 325 321 315 309 304 298 289 283 282 281 279 276 275 276 277 276 275 276 276 274 272 271 273 276 275 272 271 272 270 270 272 273 273 272 270 271 271 270 269 269 271 273
327 320 319 315 310 305 301 297 291 285 285 284 281 278 278 277 277 279 279 278 277 277 276 275 276 277 273 273 272 273 272 273 274 273 273 273 274 273 273 273 271 270 270
322 321 318 313 309 306 300 296 293 288 285 283 281 282 282 280 278 278 280 280 279 279 280 279 279 278 276 275 275 276 276 276 276 274 273 274 275 274 273 272 271 269 269
314 312 308 305 302 302 301 296 291 290 287 286 284 283 283 280 278 278 278 279 278 278 279 279 278 278 279 278 276 275 275 277 276 276 276 276 276 275 274 273 272 270 270
308 307 305 301 299 298 295 294 294 292 289 289 287 284 281 281 280 279 278 278 278 278 278 279 279 278 278 278 277 277 276 274 275 275 276 276 277 277 276 275 274 273 271
301 301 299 299 295 293 293 292 290 290 289 288 286 284 281 281 280 280 278 279 278 278 277 277 277 277 278 278 277 278 278 278 275 274 274 275 275 275 276 275 274 274 273
297 297 297 297 294 292 292 292 291 289 288 288 286 283 281 281 280 280 280 282 282 281 279 277 277 275 275 276 277 278 278 277 276 275 276 276 275 274 275 275 275 274 274
295 295 295 294 293 292 292 290 288 288 286 287 285 282 282 280 280 280 282 283 283 282 280 278 277 277 275 276 278 277 277 277 277 277 278 276 275 274 273 272 273 274 274
292 293 292 293 292 292 291 290 287 286 286 286 284 282 281 279 279 281 283 284 284 282 282 281 279 279 277 276 277 276 277 277 278 277 277 277 276 274 273 272 272 275 275
291 292 292 291 291 290 290 290 288 285 285 286 284 283 281 279 279 281 281 283 283 283 283 282 281 279 279 277 276 276 277 277 277 277 277 276 276 276 274 273 274 274 274
289 289 291 292 290 289 288 289 291 289 286 285 285 283 282 281 281 282 282 283 284 284 284 283 282 281 280 280 280 279 279 279 278 278 278 277 276 274 274 275 275 274 274
288 289 289 290 289 288 287 287 288 289 288 286 285 283 282 282 282 283 283 283 282 283 284 283 281 281 281 281 281 281 280 279 278 278 278 278 276 275 275 276 276 276 275
285 286 286 286 287 287 287 287 288 286 286 284 283 283 284 285 285 285 284 284 283 282 283 283 280 281 281 281 280 280 280 280 280 278 277 277 276 276 276 276 276 276 276
283 284 285 285 284 285 285 285 286 286 284 283 282 282 283 284 284 285 285 285 283 282 282 281 280 278 280 280 279 277 278 279 279 279 279 277 276 277 276 276 275 275 275
282 283 284 284 284 285 285 286 286 286 285 284 282 282 282 283 283 284 283 282 282 281 280 280 280 280 280 278 277 278 278 279 278 279 279 278 276 276 277 277 277 276 276
282 282 283 284 283 283 283 283 284 286 286 285 283 282 283 282 283 284 283 282 281 280 279 278 279 280 280 278 276 277 277 277 277 278 278 278 277 277 277 278 279 278 277
Height
5890 5891 5893 5893 5894 5895 5896 5897 5898 5898 5899 5900 5900 5900 5901 5901 5901 5901 5902 5902 5903 5903 5904 5904 5904 5904 5905 5904 5904 5905 5905 5904 5904 5904 5904 5904 5904 5904 5903 5903 5902 5902 5902
5891 5892 5893 5894 5895 5895 5896 5897 5897 5898 5899 5899 5899 5899 5900 5900 5900 5901 5901 5901 5902 5902 5903 5903 5903 5903 5903 5903 5903 5903 5903 5903 5903 5903 5903 5903 5903 5903 5902 5902 5902 5901 5901
5891 5892 5893 5894 5894 5895 5895 5896 5897 5897 5898 5898 5898 5899 5899 5899 5899 5900 5900 5900 5900 5901 5901 5901 5901 5901 5901 5902 5902 5902 5902 5902 5902 5902 5902 5902 5902 5901 5901 5901 5900 5900 5900
5892 5892 5893 5894 5894 5894 5895 5895 5896 5897 5897 5897 5897 5898 5898 5898 5898 5898 5899 5899 5899 5899 5899 5899 5899 5899 5900 5900 5899 5900 5900 5900 5900 5900 5900 5900 5900 5900 5899 5899 5899 5898 5898
5892 5892 5893 5893 5894 5894 5894 5895 5895 5895 5896 5896 5896 5896 5896 5896 5896 5897 5897 5897 5897 5897 5897 5897 5897 5897 5897 5897 5897 5897 5897 5897 5898 5898 5898 5898 5898 5898 5898 5897 5897 5897 5897
5892 5892 5893 5893 5893 5893 5894 5894 5894 5894 5895 5894 5894 5894 5894 5895 5895 5895 5895 5895 5895 5894 5894 5894 5895 5895 5895 5895 5894 5895 5895 5895 5895 5895 5895 5895 5895 5895 5895 5895 5895 5895 5894
5892 5892 5892 5892 5892 5892 5892 5892 5892 5893 5893 5893 5893 5893 5893 5893 5893 5893 5893 5892 5892 5892 5892 5892 5892 5892 5892 5892 5892 5892 5892 5892 5892 5893 5893 5893 5893 5893 5893 5893 5893 5892 5892
5892 5892 5892 5892 5891 5891 5891 5891 5891 5891 5891 5891 5891 5891 5891 5892 5891 5890 5890 5890 5890 5889 5889 5889 5889 5889 5889 5889 5889 5889 5889 5889 5889 5889 5890 5890 5890 5890 5890 5890 5890 5890 5889
5892 5892 5891 5891 5891 5890 5890 5889 5889 5889 5889 5889 5889 5889 5889 5889 5889 5888 5887 5887 5887 5886 5886 5886 5886 5886 5886 5886 5886 5886 5885 5885 5885 5886 5886 5886 5886 5886 5886 5886 5886 5886 5886
5891 5891 5890 5890 5889 5889 5888 5887 5887 5887 5887 5887 5886 5886 5886 5886 5886 5886 5885 5885 5884 5884 5883 5883 5883 5883 5883 5882 5882 5882 5882 5882 5882 5882 5882 5882 5882 5882 5882 5882 5882 5882 5882
5890 5890 5889 5888 5888 5887 5886 5885 5885 5884 5884 5884 5884 5884 5883 5883 5883 5883 5882 5882 5881 5881 5880 5880 5879 5879 5879 5879 5878 5878 5878 5878 5878 5878 5878 5878 5878 5878 5878 5878 5878 5878 5878
5889 5888 5887 5887 5886 5885 5884 5883 5883 5882 5882 5881 5881 5881 5880 5880 5880 5879 5879 5878 5878 5878 5877 5876 5876 5876 5875 5875 5874 5874 5874 5874 5874 5874 5874 5874 5874 5874 5874 5874 5873 5873 5873
5888 5887 5886 5885 5884 5883 5882 5881 5880 5880 5879 5878 5878 5877 5877 5876 5876 5876 5875 5875 5874 5874 5873 5873 5872 5872 5871 5871 5871 5870 5870 5870 5870 5870 5869 5869 5869 5869 5869 5869 5868 5868 5868
5886 5885 5884 5883 5882 5881 5879 5879 5878 5877 5876 5875 5874 5874 5873 5872 5872 5872 5871 5871 5870 5870 5870 5869 5868 5868 5867 5866 5866 5866 5866 5865 5865 5865 5865 5864 5864 5864 5863 5863 5863 5862 5862
5883 5882 5881 5880 5879 5878 5877 5876 5875 5873 5872 5872 5871 5870 5869 5869 5868 5867 5867 5867 5866 5866 5866 5865 5864 5864 5863 5862 5862 5862 5861 5860 5860 5860 5859 5859 5859 5858 5857 5857 5857 5856 5856
5881 5879 5878 5877 5876 5874 5873 5872 5871 5870 5869 5868 5867 5866 5865 5864 5864 5863 5862 5862 5861 5861 5860 5860 5859 5859 5858 5857 5857 5856 5856 5855 5855 5854 5854 5853 5853 5852 5851 5851 5850 5850 5849
5877 5876 5875 5873 5872 5871 5869 5868 5867 5865 5864 5863 5862 5861 5860 5859 5859 5858 5857 5857 5856 5855 5855 5854 5854 5853 5853 5852 5851 5850 5850 5849 5849 5848 5847 5847 5846 5845 5845 5844 5844 5843 5842
5873 5872 5870 5869 5868 5866 5865 5863 5862 5861 5859 5858 5857 5856 5855 5854 5854 5853 5852 5851 5850 5850 5849 5848 5848 5847 5846 5846 5845 5844 5844 5843 5842 5841 5841 5840 5839 5838 5838 5837 5836 5836 5835
5868 5867 5866 5864 5863 5861 5860 5858 5857 5855 5854 5852 5851 5850 5849 5849 5848 5847 5847 5845 5844 5843 5843 5842 5841 5840 5839 5839 5838 5837 5837 5836 5835 5834 5833 5832 5831 5830 5830 5829 5829 5828 5828
5862 5861 5860 5858 5857 5855 5854 5852 5851 5849 5848 5846 5845 5844 5844 5843 5842 5841 5840 5839 5838 5837 5836 5835 5834 5833 5832 5831 5831 5830 5829 5828 5827 5826 5825 5824 5823 5822 5822 5821 5821 5820 5820
5856 5854 5853 5852 5850 5849 5847 5846 5844 5843 5841 5840 5839 5838 5837 5836 5835 5835 5834 5833 5831 5830 5829 5828 5827 5826 5825 5824 5823 5822 5821 5820 5819 5818 5817 5816 5815 5814 5813 5813 5812 5812 5811
5849 5847 5846 5845 5843 5842 5840 5839 5837 5836 5834 5833 5832 5831 5830 5829 5828 5827 5826 5825 5824 5822 5821 5820 5819 5819 5817 5816 5815 5814 5813 5812 5811 5810 5808 5807 5806 5806 5805 5804 5804 5803 5802
5841 5840 5839 5837 5835 5834 5833 5831 5830 5828 5827 5826 5824 5823 5822 5821 5820 5819 5817 5816 5814 5814 5813 5812 5811 5810 5809 5808 5806 5805 5804 5803 5802 5801 5799 5798 5797 5797 5796 5795 5795 5794 5793
5833 5832 5831 5829 5828 5826 5824 5823 5822 5820 5819 5817 5816 5815 5814 5813 5811 5809 5808 5806 5805 5804 5804 5803 5802 5801 5800 5799 5797 5796 5795 5794 5794 5792 5791 5790 5789 5788 5787 5786 5785 5785 5784
5825 5824 5822 5821 5819 5818 5816 5814 5813 5811 5810 5809 5807 5806 5805 5803 5802 5800 5798 5797 5796 5795 5794 5793 5793 5792 5790 5789 5788 5788 5786 5785 5785 5784 5782 5781 5780 5779 5778 5777 5776 5775 5774
5816 5815 5813 5812 5810 5808 5807 5805 5804 5802 5801 5799 5798 5796 5795 5793 5792 5790 5788 5787 5786 5785 5784 5783 5782 5782 5781 5779 5779 5778 5777 5775 5775 5774 5773 5772 5771 5770 5769 5768 5767 5766 5765